Location: Knowlton
(51.2333°N, 1.2667°E)
Time: 04:48:43
(UTC+00:00)

Landsat 7 - Pass Details

Date: 18 April 2021
Orbit: 701 x 703 km, 98.0° (Epoch: 06 May)

Event Time Altitude Azimuth Distance (km) Brightness Sun altitude
Exits shadow 20:20:36 14° 154° (SSE) 1,896 5.5 -12.5°
Maximum altitude 20:24:39 71° 73° (ENE) 745 3.8 -13.0°
Drops below altitude 10° 20:29:25 10° 349° (N) 2,181 7.1 -13.6°
Sets 20:31:41 0° 348° (NNW) 3,104 8.0 -13.8°
